Regional Weather Roundup
Issued by NWS Sterling, VA

Home | Current Version | Previous Version | Text Only | Print | Product List | Glossary On
Versions: 1 2 3 4 5 6 7 8 9 10 11 12 13 14 15 16 17 18 19 20 21 22 23 24 25 26 27 28
000
ASUS41 KLWX 241110
RWRLWX

REGIONAL WEATHER ROUNDUP
NATIONAL WEATHER SERVICE BALTIMORE MD/WASHINGTON DC
700 AM EDT THU APR 24 2014

Note: "FAIR" indicates few or no clouds below 12,000 feet
with no significant weather and/or obstructions to visibility.
 TC=TEMPERATURE CELSIUS

 * =Non NWS site. Station does not report precipitation (e.g. rain,
    snow, etc.), thunder, or fog.

DCZ001-MDZ009-015-VAZ040>042-051-053>054-241200-
WASHINGTON METRO

CITY           SKY/WX    TMP DP  RH WIND       PRES   REMARKS
WASHINGTON NAT CLEAR     46  23  40 NW10      30.10R
DULLES         PTCLDY    39  22  50 NW9       30.10R
ANDREWS AFB    CLEAR     44  24  45 NW12      30.09R
FT BELVOIR     CLEAR     43  22  43 NW8       30.11R
QUANTICO       PTCLDY    45  25  45 N7        30.11R
COLLEGE PARK*  CLEAR     45  27  49 NW7       30.09R
LEESBURG*      CLEAR     41  27  56 N6        30.11R
MANASSAS*      CLEAR     39  28  65 NW6       30.10R
GAITHERSBURG*  CLEAR     37  23  56 NW6       30.11R

$$

MDZ006>007-011-014-241200-
BALTIMORE METRO

CITY           SKY/WX    TMP DP  RH WIND       PRES   REMARKS
BWI AIRPORT    PTCLDY    40  27  59 W8        30.07R
MD SCIENCE CTR   N/A     44  25  47 MISG      30.08R
MARTIN STATE   CLEAR    N/A N/A N/A W9        30.09R
ANNAPOLIS      CLEAR     45  28  51 NW8       30.08R
FORT MEADE*    CLEAR     37  28  70 NW6       30.11R

$$

MDZ012-015-019>023-241200-
MARYLAND EASTERN SHORE

CITY           SKY/WX    TMP DP  RH WIND       PRES   REMARKS
OCEAN CITY     CLEAR     42  31  64 NW5       30.03R
SALISBURY      CLEAR     47  29  49 NW9       30.04R
BAY BRIDGE AP* CLEAR     45  28  53 NW14G20   30.07R
CAMBRIDGE*     CLEAR     48  28  46 NW12G21   30.05R
EASTON*        CLEAR     46  30  53 NW12      30.09R

$$

MDZ017>025-241200-
SOUTHERN MARYLAND

CITY           SKY/WX    TMP DP  RH WIND       PRES   REMARKS
PATUXENT RIVER PTCLDY    45  27  49 NW10      30.07R
ST INIGOES     CLEAR     45  27  49 NW7       30.06R
LEONARDTOWN*   CLEAR     43  27  52 W6        30.09R

$$

MDZ003>005-241200-
NORTH CENTRAL MARYLAND

CITY           SKY/WX    TMP DP  RH WIND       PRES   REMARKS
FREDERICK*     CLEAR     39  27  60 NW5       30.12R
HAGERSTOWN APT CLEAR     38  21  50 W7        30.10R
WESTMINSTER*   CLEAR     39  23  52 NW9       30.06R

$$

MDZ501>502-241200-
WESTERN MARYLAND

CITY           SKY/WX    TMP DP  RH WIND       PRES   REMARKS
OAKLAND*       CLEAR     28   5  37 CALM      30.06R
CUMBERLAND*    CLEAR     34  21  60 N3        30.17R

$$

VAZ025>031-241200-
SHENANDOAH VALLEY

CITY           SKY/WX    TMP DP  RH WIND       PRES   REMARKS
WINCHESTER*    CLEAR     37  21  52 NW10      30.10S
STAUNTON*      PTCLDY    33  29  86 CALM      30.12R

$$

WVZ021-048>050-054>055-241200-
EASTERN WEST VIRGINIA PANHANDLE

CITY           SKY/WX    TMP DP  RH WIND       PRES   REMARKS
MARTINSBURG    CLEAR     40  18  41 NW6       30.11R
PETERSBURG*    PTCLDY    37  34  90 CALM      30.14R

$$

VAZ036>039-050-241200-
CENTRAL FOOTHILLS

CITY           SKY/WX    TMP DP  RH WIND       PRES   REMARKS
CHARLOTTESVILL CLEAR     45  25  45 NW6       30.09R
CULPEPER*      CLEAR     39  27  60 CALM      30.11R

$$

VAZ055>057-241200-
NORTH AND CENTRAL PIEDMONT

CITY           SKY/WX    TMP DP  RH WIND       PRES   REMARKS
FREDERICKSBRG* CLEAR     44  29  57 CALM      30.10R
STAFFORD*      CLEAR     40  28  62 NW6       30.14R

$$

NCZ024-NYZ072-PAZ021-071-VAZ022-071-241200-
OTHER REGIONAL OBSERVATIONS

CITY           SKY/WX    TMP DP  RH WIND       PRES   REMARKS
NEW YORK CITY  CLEAR     43  17  35 MISG      29.91R
PHILADELPHIA   CLEAR     42  21  43 W12       30.02R
PITTSBURGH     MOCLDY    33  21  61 NW3       30.13R
ROANOKE        MOCLDY    43  31  62 CALM      30.11R
RICHMOND       PTCLDY    43  30  60 NW5       30.10R
RALEIGH        PTCLDY    42  33  70 CALM      30.10R

$$

ANZ530>537-241200-
MARINE OBSERVATIONS

STATION/POSITION TIME  TEMP    WIND        PRES
                       AIR SEA DIR/SP/G
                 (UTC) (F)     (DEG/KT/KT) (MB)
THOMAS PT LIGHT  1100   45 52  310/ 13/ 15 1018.9R
BALT KEY BRIDGE  1100   44     280/ 12/ 13 1018.5R
COVE POINT       1100   46     330/ 15/ 19 1017.8R
LEWISETTA        1100   48 56  350/ 18/ 23 1018.0R
SOLOMONS ISLAND  1100      55                N/A
PINEY POINT      1100          350/ 14/ 16   N/A

$$




USA.gov is the U.S. government's official web portal to all federal, state and local government web resources and services.